This demonstration page uses our WeatherBlox Daily Observations layout. Learn more.

Left ArrowRight Arrow

31.84235, -102.49876

Hourly Observations for March 14, 2015

Temp ( °F °C ) Dew Point ( °F °C ) Humidity (%) Winds ( mph kmh ) Pressure ( in mb ) Visibility ( mi km ) Precip ( " mm )
12:53 am 00:53 Mostly Clear 50 10 36 2.2 59 59 NNE 9 15 30.08 1019 10 16 0.00 0.00
1:53 am 01:53 Clear 48 8.9 35 1.7 61 61 NNE 9 15 30.08 1019 10 16 0.00 0.00
2:53 am 02:53 Clear 48 8.9 35 1.7 61 61 NNE 9 15 30.09 1019 10 16 0.00 0.00
3:53 am 03:53 Clear 48 8.9 36 2.2 63 63 NNE 12 19 30.09 1019 10 16 0.00 0.00
4:53 am 04:53 Clear 49 9.4 37 2.8 64 64 NNE 9 15 30.10 1019 10 16 0.00 0.00
5:53 am 05:53 Partly Cloudy 49 9.4 38 3.3 66 66 NNE 9 15 30.13 1020 10 16 0.00 0.00
6:53 am 06:53 Cloudy 50 10 39 3.9 66 66 NNE 9 15 30.15 1021 10 16 0.00 0.00
7:53 am 07:53 Cloudy 50 10 38 3.3 63 63 N 9 15 30.17 1022 10 16 0.00 0.00
8:53 am 08:53 Cloudy 50 10 37 2.8 61 61 N 8 13 30.20 1023 10 16 0.00 0.00
9:53 am 09:53 Partly Cloudy 53 11.7 37 2.8 55 55 N 7 11 30.23 1024 10 16 0.00 0.00
10:53 am 10:53 Sunny 60 15.6 36 2.2 41 41 NE 20 31 30.23 1024 10 16 0.00 0.00
11:53 am 11:53 Sunny 64 17.8 36 2.2 35 35 NE 15 24 30.22 1024 10 16 0.00 0.00
12:53 pm 12:53 Sunny 67 19.4 32 0 27 27 NE 16 26 30.21 1023 10 16 0.00 0.00
1:53 pm 13:53 Sunny 68 20 30 -1.1 24 24 NNE 15 24 30.19 1022 10 16 0.00 0.00
2:53 pm 14:53 Sunny 69 20.6 30 -1.1 23 23 NE 17 28 30.16 1021 10 16 0.00 0.00
3:53 pm 15:53 Mostly Cloudy 68 20 29 -1.7 23 23 NE 20 31 30.15 1021 10 16 0.00 0.00
4:53 pm 16:53 Mostly Sunny 69 20.6 26 -3.3 20 20 ENE 18 30 30.14 1021 10 16 0.00 0.00
5:53 pm 17:53 Mostly Cloudy 67 19.4 27 -2.8 22 22 NE 16 26 30.14 1021 10 16 0.00 0.00
6:53 pm 18:53 Partly Cloudy 66 18.9 25 -3.9 21 21 ENE 15 24 30.15 1021 10 16 0.00 0.00
7:53 pm 19:53 Sunny 60 15.6 27 -2.8 28 28 NE 10 17 30.16 1021 10 16 0.00 0.00
8:53 pm 20:53 Clear 52 11.1 29 -1.7 41 41 ENE 8 13 30.19 1022 10 16 0.00 0.00
9:53 pm 21:53 Clear 50 10 29 -1.7 44 44 ENE 9 15 30.19 1023 10 16 0.00 0.00
10:53 pm 22:53 Clear 50 10 29 -1.7 44 44 NE 8 13 30.22 1023 10 16 0.00 0.00
11:53 pm 23:53 Clear 46 7.8 30 -1.1 54 54 NNE 8 13 30.23 1024 10 16 0.00 0.00

Powered by AerisWeather